Time,TemperatureF,DewpointF,PressureIn,WindDirection,WindDirectionDegrees,WindSpeedMPH,WindSpeedGustMPH,Humidity,HourlyPrecipIn,Conditions,Clouds,dailyrainin,SoftwareType,DateUTC
2013-03-17 00:04:00,57.2,46.0,30.05,NW,315,0.0,0.0,66,0.00,,,0.00,VWS V14.01,2013-03-17 07:04:00,
2013-03-17 00:09:00,57.1,45.9,30.06,NW,315,0.0,0.0,66,0.00,,,0.00,VWS V14.01,2013-03-17 07:09:00,
2013-03-17 00:14:00,56.9,45.3,30.06,NW,315,0.0,4.0,65,0.00,,,0.00,VWS V14.01,2013-03-17 07:14:00,
2013-03-17 00:19:00,56.8,44.8,30.06,NW,315,0.0,4.0,64,0.00,,,0.00,VWS V14.01,2013-03-17 07:19:00,
2013-03-17 00:24:00,56.7,44.3,30.06,NW,315,0.0,4.0,63,0.00,,,0.00,VWS V14.01,2013-03-17 07:24:00,
2013-03-17 00:29:00,56.6,44.2,30.05,NW,315,0.0,4.0,63,0.00,,,0.00,VWS V14.01,2013-03-17 07:29:00,
2013-03-17 00:34:00,56.6,43.8,30.06,NW,315,1.0,4.0,62,0.00,,,0.00,VWS V14.01,2013-03-17 07:34:00,
2013-03-17 00:39:00,56.5,43.7,30.06,NW,315,0.0,5.0,62,0.00,,,0.00,VWS V14.01,2013-03-17 07:39:00,
2013-03-17 00:44:00,56.4,43.6,30.06,NW,315,0.0,5.0,62,0.00,,,0.00,VWS V14.01,2013-03-17 07:44:00,
2013-03-17 00:49:00,56.3,43.5,30.06,NW,315,0.0,5.0,62,0.00,,,0.00,VWS V14.01,2013-03-17 07:49:00,
2013-03-17 00:54:00,56.2,43.4,30.06,NW,315,0.0,5.0,62,0.00,,,0.00,VWS V14.01,2013-03-17 07:54:00,
2013-03-17 00:59:00,56.2,43.4,30.06,NW,315,0.0,5.0,62,0.00,,,0.00,VWS V14.01,2013-03-17 07:59:00,
2013-03-17 01:04:00,56.2,43.0,30.06,NW,315,3.0,5.0,61,0.00,,,0.00,VWS V14.01,2013-03-17 08:04:00,
2013-03-17 01:09:00,56.3,43.0,30.06,NW,315,2.0,5.0,61,0.00,,,0.00,VWS V14.01,2013-03-17 08:09:00,
2013-03-17 01:14:00,56.3,43.0,30.06,NW,315,1.0,5.0,61,0.00,,,0.00,VWS V14.01,2013-03-17 08:14:00,
2013-03-17 01:19:00,56.3,42.6,30.06,NW,315,0.0,5.0,60,0.00,,,0.00,VWS V14.01,2013-03-17 08:19:00,
2013-03-17 01:24:00,56.4,42.7,30.06,NW,315,0.0,5.0,60,0.00,,,0.00,VWS V14.01,2013-03-17 08:24:00,
2013-03-17 01:29:00,56.6,42.9,30.06,NW,315,2.0,5.0,60,0.00,,,0.00,VWS V14.01,2013-03-17 08:29:00,
2013-03-17 01:34:00,56.7,42.5,30.07,NW,316,2.0,6.0,59,0.00,,,0.00,VWS V14.01,2013-03-17 08:34:00,
2013-03-17 01:39:00,56.9,42.3,30.07,NW,319,0.0,9.0,58,0.00,,,0.00,VWS V14.01,2013-03-17 08:39:00,
2013-03-17 01:44:00,57.1,42.5,30.07,NW,319,0.0,9.0,58,0.00,,,0.00,VWS V14.01,2013-03-17 08:44:00,
2013-03-17 01:49:00,57.1,42.5,30.07,NW,319,2.0,9.0,58,0.00,,,0.00,VWS V14.01,2013-03-17 08:49:00,
2013-03-17 01:54:00,57.1,42.0,30.07,NW,319,0.0,9.0,57,0.00,,,0.00,VWS V14.01,2013-03-17 08:54:00,
2013-03-17 01:59:00,57.1,42.0,30.07,NW,320,3.0,9.0,57,0.00,,,0.00,VWS V14.01,2013-03-17 08:59:00,
2013-03-17 02:04:00,57.1,42.0,30.07,NW,320,4.0,7.0,57,0.00,,,0.00,VWS V14.01,2013-03-17 09:04:00,
2013-03-17 02:09:00,57.4,41.8,30.07,NW,321,5.0,10.0,56,0.00,,,0.00,VWS V14.01,2013-03-17 09:09:00,
2013-03-17 02:14:00,57.5,41.9,30.07,NW,321,3.0,10.0,56,0.00,,,0.00,VWS V14.01,2013-03-17 09:14:00,
2013-03-17 02:19:00,57.1,42.0,30.08,NW,321,2.0,10.0,57,0.00,,,0.00,VWS V14.01,2013-03-17 09:19:00,
2013-03-17 02:24:00,56.6,42.0,30.08,NW,321,0.0,10.0,58,0.00,,,0.00,VWS V14.01,2013-03-17 09:24:00,
2013-03-17 02:29:00,56.1,42.0,30.08,NW,321,0.0,10.0,59,0.00,,,0.00,VWS V14.01,2013-03-17 09:29:00,
2013-03-17 02:34:00,55.7,42.0,30.08,NW,321,0.0,10.0,60,0.00,,,0.00,VWS V14.01,2013-03-17 09:34:00,
2013-03-17 02:39:00,55.4,41.8,30.08,NW,321,0.0,10.0,60,0.00,,,0.00,VWS V14.01,2013-03-17 09:39:00,
2013-03-17 02:44:00,55.1,41.9,30.08,NW,321,0.0,10.0,61,0.00,,,0.00,VWS V14.01,2013-03-17 09:44:00,
2013-03-17 02:49:00,54.8,41.6,30.08,NW,321,0.0,10.0,61,0.00,,,0.00,VWS V14.01,2013-03-17 09:49:00,
2013-03-17 02:54:00,54.6,41.4,30.08,NW,321,0.0,10.0,61,0.00,,,0.00,VWS V14.01,2013-03-17 09:54:00,
2013-03-17 02:59:00,54.4,41.7,30.08,NW,321,0.0,10.0,62,0.00,,,0.00,VWS V14.01,2013-03-17 09:59:00,
2013-03-17 03:04:00,54.2,41.5,30.07,NW,321,0.0,0.0,62,0.00,,,0.00,VWS V14.01,2013-03-17 10:04:00,
2013-03-17 03:09:00,54.0,41.3,30.07,NW,321,0.0,0.0,62,0.00,,,0.00,VWS V14.01,2013-03-17 10:09:00,
2013-03-17 03:14:00,53.8,41.5,30.08,NW,321,0.0,0.0,63,0.00,,,0.00,VWS V14.01,2013-03-17 10:14:00,
2013-03-17 03:19:00,53.6,41.3,30.07,NW,321,0.0,0.0,63,0.00,,,0.00,VWS V14.01,2013-03-17 10:19:00,
2013-03-17 03:24:00,53.3,41.5,30.07,NW,321,0.0,0.0,64,0.00,,,0.00,VWS V14.01,2013-03-17 10:24:00,
2013-03-17 03:29:00,53.0,41.2,30.07,NW,321,0.0,0.0,64,0.00,,,0.00,VWS V14.01,2013-03-17 10:29:00,
2013-03-17 03:34:00,52.7,41.3,30.07,NW,321,0.0,0.0,65,0.00,,,0.00,VWS V14.01,2013-03-17 10:34:00,
2013-03-17 03:39:00,52.4,41.0,30.07,NW,321,0.0,0.0,65,0.00,,,0.00,VWS V14.01,2013-03-17 10:39:00,
2013-03-17 03:44:00,52.1,41.1,30.07,NW,321,0.0,1.0,66,0.00,,,0.00,VWS V14.01,2013-03-17 10:44:00,
2013-03-17 03:49:00,51.9,40.9,30.07,NW,321,0.0,1.0,66,0.00,,,0.00,VWS V14.01,2013-03-17 10:49:00,
2013-03-17 03:54:00,51.5,40.9,30.07,NW,321,0.0,1.0,67,0.00,,,0.00,VWS V14.01,2013-03-17 10:54:00,
2013-03-17 03:59:00,51.3,41.1,30.07,NW,321,0.0,2.0,68,0.00,,,0.00,VWS V14.01,2013-03-17 10:59:00,
2013-03-17 04:04:00,51.0,40.8,30.06,NW,321,0.0,0.0,68,0.00,,,0.00,VWS V14.01,2013-03-17 11:04:00,
2013-03-17 04:09:00,50.8,41.0,30.06,NW,321,0.0,0.0,69,0.00,,,0.00,VWS V14.01,2013-03-17 11:09:00,
2013-03-17 04:14:00,50.5,41.1,30.06,NW,321,0.0,0.0,70,0.00,,,0.00,VWS V14.01,2013-03-17 11:14:00,
2013-03-17 04:19:00,50.3,40.9,30.06,NW,321,0.0,0.0,70,0.00,,,0.00,VWS V14.01,2013-03-17 11:19:00,
2013-03-17 04:24:00,50.1,40.7,30.06,NW,321,0.0,0.0,70,0.00,,,0.00,VWS V14.01,2013-03-17 11:24:00,
2013-03-17 04:29:00,49.9,40.5,30.06,NW,321,0.0,0.0,70,0.00,,,0.00,VWS V14.01,2013-03-17 11:29:00,
2013-03-17 04:34:00,49.7,40.7,30.06,NW,321,0.0,0.0,71,0.00,,,0.00,VWS V14.01,2013-03-17 11:34:00,
2013-03-17 04:39:00,49.6,40.2,30.06,NW,321,0.0,0.0,70,0.00,,,0.00,VWS V14.01,2013-03-17 11:39:00,
2013-03-17 04:44:00,49.5,40.1,30.06,NW,321,0.0,0.0,70,0.00,,,0.00,VWS V14.01,2013-03-17 11:44:00,
2013-03-17 04:49:00,49.3,40.3,30.06,NW,321,0.0,0.0,71,0.00,,,0.00,VWS V14.01,2013-03-17 11:49:00,
2013-03-17 04:54:00,49.2,40.2,30.06,NW,321,0.0,0.0,71,0.00,,,0.00,VWS V14.01,2013-03-17 11:54:00,
2013-03-17 04:59:00,49.0,40.4,30.06,NW,321,0.0,0.0,72,0.00,,,0.00,VWS V14.01,2013-03-17 11:59:00,
2013-03-17 05:04:00,48.8,40.2,30.07,NW,321,0.0,0.0,72,0.00,,,0.00,VWS V14.01,2013-03-17 12:04:00,
2013-03-17 05:09:00,48.7,40.1,30.07,NW,321,0.0,0.0,72,0.00,,,0.00,VWS V14.01,2013-03-17 12:09:00,
2013-03-17 05:14:00,48.6,40.0,30.06,NW,321,0.0,0.0,72,0.00,,,0.00,VWS V14.01,2013-03-17 12:14:00,
2013-03-17 05:19:00,48.5,40.2,30.06,NW,321,0.0,0.0,73,0.00,,,0.00,VWS V14.01,2013-03-17 12:19:00,
2013-03-17 05:24:00,48.3,40.1,30.07,NW,321,0.0,0.0,73,0.00,,,0.00,VWS V14.01,2013-03-17 12:24:00,
2013-03-17 05:29:00,48.2,40.0,30.07,NW,321,0.0,0.0,73,0.00,,,0.00,VWS V14.01,2013-03-17 12:29:00,
2013-03-17 05:34:00,48.1,40.2,30.07,NW,321,0.0,0.0,74,0.00,,,0.00,VWS V14.01,2013-03-17 12:34:00,
2013-03-17 05:39:00,47.9,40.0,30.07,NW,321,0.0,0.0,74,0.00,,,0.00,VWS V14.01,2013-03-17 12:39:00,
2013-03-17 05:44:00,47.8,39.9,30.07,NW,321,0.0,0.0,74,0.00,,,0.00,VWS V14.01,2013-03-17 12:44:00,
2013-03-17 05:49:00,47.7,39.8,30.07,NW,321,0.0,0.0,74,0.00,,,0.00,VWS V14.01,2013-03-17 12:49:00,
2013-03-17 05:54:00,47.6,39.7,30.07,NW,321,0.0,0.0,74,0.00,,,0.00,VWS V14.01,2013-03-17 12:54:00,
2013-03-17 05:59:00,47.5,39.6,30.07,NW,321,0.0,0.0,74,0.00,,,0.00,VWS V14.01,2013-03-17 12:59:00,
2013-03-17 06:04:00,47.3,39.5,30.08,NW,321,0.0,0.0,74,0.00,,,0.00,VWS V14.01,2013-03-17 13:04:00,
2013-03-17 06:09:00,47.2,39.3,30.08,NW,321,0.0,0.0,74,0.00,,,0.00,VWS V14.01,2013-03-17 13:09:00,
2013-03-17 06:14:00,47.0,39.2,30.08,NW,321,0.0,0.0,74,0.00,,,0.00,VWS V14.01,2013-03-17 13:14:00,
2013-03-17 06:19:00,46.8,39.0,30.08,NW,321,0.0,0.0,74,0.00,,,0.00,VWS V14.01,2013-03-17 13:19:00,
2013-03-17 06:24:00,46.7,39.2,30.08,NW,321,0.0,0.0,75,0.00,,,0.00,VWS V14.01,2013-03-17 13:24:00,
2013-03-17 06:29:00,46.6,39.1,30.08,NW,321,0.0,0.0,75,0.00,,,0.00,VWS V14.01,2013-03-17 13:29:00,
2013-03-17 06:34:00,46.6,39.1,30.09,NW,321,0.0,1.0,75,0.00,,,0.00,VWS V14.01,2013-03-17 13:34:00,
2013-03-17 06:39:00,46.7,39.2,30.09,NW,321,0.0,1.0,75,0.00,,,0.00,VWS V14.01,2013-03-17 13:39:00,
2013-03-17 06:44:00,46.7,39.2,30.09,NW,321,0.0,1.0,75,0.00,,,0.00,VWS V14.01,2013-03-17 13:44:00,
2013-03-17 06:49:00,46.9,39.1,30.09,NW,321,0.0,1.0,74,0.00,,,0.00,VWS V14.01,2013-03-17 13:49:00,
2013-03-17 06:54:00,47.0,39.2,30.09,NW,321,0.0,1.0,74,0.00,,,0.00,VWS V14.01,2013-03-17 13:54:00,
2013-03-17 06:59:00,47.2,39.0,30.09,NW,321,0.0,1.0,73,0.00,,,0.00,VWS V14.01,2013-03-17 13:59:00,
2013-03-17 07:04:00,47.3,39.1,30.09,NW,321,0.0,0.0,73,0.00,,,0.00,VWS V14.01,2013-03-17 14:04:00,
2013-03-17 07:09:00,47.3,39.1,30.09,NW,321,0.0,0.0,73,0.00,,,0.00,VWS V14.01,2013-03-17 14:09:00,
2013-03-17 07:14:00,47.3,38.7,30.09,NW,321,0.0,0.0,72,0.00,,,0.00,VWS V14.01,2013-03-17 14:14:00,
2013-03-17 07:18:00,47.3,38.7,30.09,NW,321,0.0,0.0,72,0.00,,,0.00,VWS V14.01,2013-03-17 14:18:00,
2013-03-17 07:23:00,47.2,38.7,30.09,NW,321,0.0,0.0,72,0.00,,,0.00,VWS V14.01,2013-03-17 14:23:00,
2013-03-17 07:28:00,47.1,38.9,30.09,NW,321,0.0,0.0,73,0.00,,,0.00,VWS V14.01,2013-03-17 14:28:00,
2013-03-17 07:33:00,47.0,38.8,30.09,NW,321,0.0,0.0,73,0.00,,,0.00,VWS V14.01,2013-03-17 14:33:00,
2013-03-17 07:38:00,46.9,38.7,30.10,NW,321,0.0,2.0,73,0.00,,,0.00,VWS V14.01,2013-03-17 14:38:00,
2013-03-17 07:43:00,46.9,38.7,30.11,NW,321,2.0,4.0,73,0.00,,,0.00,VWS V14.01,2013-03-17 14:43:00,
2013-03-17 07:48:00,46.9,38.7,30.11,NW,321,0.0,4.0,73,0.00,,,0.00,VWS V14.01,2013-03-17 14:48:00,
2013-03-17 07:53:00,47.0,39.2,30.11,NW,321,0.0,4.0,74,0.00,,,0.00,VWS V14.01,2013-03-17 14:53:00,
2013-03-17 07:58:00,47.0,39.2,30.11,NW,321,0.0,4.0,74,0.00,,,0.00,VWS V14.01,2013-03-17 14:58:00,
2013-03-17 08:03:00,47.2,39.0,30.11,NW,321,0.0,0.0,73,0.00,,,0.00,VWS V14.01,2013-03-17 15:03:00,
2013-03-17 08:08:00,47.4,39.2,30.11,NW,321,0.0,0.0,73,0.00,,,0.00,VWS V14.01,2013-03-17 15:08:00,
2013-03-17 08:13:00,47.6,39.7,30.11,NW,321,0.0,0.0,74,0.00,,,0.00,VWS V14.01,2013-03-17 15:13:00,
2013-03-17 08:18:00,47.9,39.7,30.11,NW,321,1.0,1.0,73,0.00,,,0.00,VWS V14.01,2013-03-17 15:18:00,
2013-03-17 08:23:00,48.5,40.2,30.11,NW,321,0.0,4.0,73,0.00,,,0.00,VWS V14.01,2013-03-17 15:23:00,
2013-03-17 08:28:00,49.0,40.7,30.11,NW,321,5.0,7.0,73,0.00,,,0.00,VWS V14.01,2013-03-17 15:28:00,
2013-03-17 08:33:00,49.5,40.5,30.11,NW,321,3.0,7.0,71,0.00,,,0.00,VWS V14.01,2013-03-17 15:33:00,
2013-03-17 08:38:00,49.9,40.5,30.11,NW,321,1.0,7.0,70,0.00,,,0.00,VWS V14.01,2013-03-17 15:38:00,
2013-03-17 08:43:00,50.3,41.3,30.11,NW,321,0.0,7.0,71,0.00,,,0.00,VWS V14.01,2013-03-17 15:43:00,
2013-03-17 08:48:00,50.7,41.7,30.11,NW,321,0.0,7.0,71,0.00,,,0.00,VWS V14.01,2013-03-17 15:48:00,
2013-03-17 08:53:00,51.0,41.6,30.12,NW,321,0.0,7.0,70,0.00,,,0.00,VWS V14.01,2013-03-17 15:53:00,
2013-03-17 08:58:00,51.2,41.8,30.12,NW,321,0.0,7.0,70,0.00,,,0.00,VWS V14.01,2013-03-17 15:58:00,
2013-03-17 09:03:00,51.4,41.6,30.12,NW,321,2.0,3.0,69,0.00,,,0.00,VWS V14.01,2013-03-17 16:03:00,
2013-03-17 09:08:00,51.6,41.4,30.12,NW,321,0.0,4.0,68,0.00,,,0.00,VWS V14.01,2013-03-17 16:08:00,
2013-03-17 09:13:00,51.9,41.7,30.12,NW,321,0.0,4.0,68,0.00,,,0.00,VWS V14.01,2013-03-17 16:13:00,
2013-03-17 09:18:00,52.3,42.1,30.12,NW,321,2.0,4.0,68,0.00,,,0.00,VWS V14.01,2013-03-17 16:18:00,
2013-03-17 09:23:00,52.6,42.3,30.12,NW,321,0.0,4.0,68,0.00,,,0.00,VWS V14.01,2013-03-17 16:23:00,
2013-03-17 09:28:00,52.9,42.6,30.12,NW,321,2.0,4.0,68,0.00,,,0.00,VWS V14.01,2013-03-17 16:28:00,
2013-03-17 09:33:00,53.3,43.4,30.12,NW,321,0.0,4.0,69,0.00,,,0.00,VWS V14.01,2013-03-17 16:33:00,
2013-03-17 09:38:00,53.6,43.3,30.12,NW,321,0.0,4.0,68,0.00,,,0.00,VWS V14.01,2013-03-17 16:38:00,
2013-03-17 09:43:00,54.1,43.0,30.12,NW,321,0.0,4.0,66,0.00,,,0.00,VWS V14.01,2013-03-17 16:43:00,
2013-03-17 09:48:00,54.8,43.7,30.12,NW,321,0.0,4.0,66,0.00,,,0.00,VWS V14.01,2013-03-17 16:48:00,
2013-03-17 09:53:00,55.3,42.9,30.12,NW,321,0.0,4.0,63,0.00,,,0.00,VWS V14.01,2013-03-17 16:53:00,
2013-03-17 09:58:00,56.1,44.1,30.13,NW,321,0.0,4.0,64,0.00,,,0.00,VWS V14.01,2013-03-17 16:58:00,
2013-03-17 10:03:00,56.8,43.9,30.13,NW,321,2.0,3.0,62,0.00,,,0.00,VWS V14.01,2013-03-17 17:03:00,
2013-03-17 10:08:00,57.3,43.1,30.13,NW,321,0.0,5.0,59,0.00,,,0.00,VWS V14.01,2013-03-17 17:08:00,
2013-03-17 10:13:00,57.7,42.6,30.12,NW,321,0.0,5.0,57,0.00,,,0.00,VWS V14.01,2013-03-17 17:13:00,
2013-03-17 10:18:00,58.1,42.5,30.13,NW,321,4.0,5.0,56,0.00,,,0.00,VWS V14.01,2013-03-17 17:18:00,
2013-03-17 10:23:00,58.6,43.0,30.13,NW,321,0.0,5.0,56,0.00,,,0.00,VWS V14.01,2013-03-17 17:23:00,
2013-03-17 10:28:00,59.0,42.4,30.13,NW,321,2.0,5.0,54,0.00,,,0.00,VWS V14.01,2013-03-17 17:28:00,
2013-03-17 10:33:00,59.0,42.4,30.13,NW,321,1.0,6.0,54,0.00,,,0.00,VWS V14.01,2013-03-17 17:33:00,
2013-03-17 10:38:00,59.3,42.2,30.13,NW,321,0.0,6.0,53,0.00,,,0.00,VWS V14.01,2013-03-17 17:38:00,
2013-03-17 10:43:00,59.8,43.1,30.13,NW,321,0.0,6.0,54,0.00,,,0.00,VWS V14.01,2013-03-17 17:43:00,
2013-03-17 10:48:00,60.1,42.9,30.13,NW,321,0.0,6.0,53,0.00,,,0.00,VWS V14.01,2013-03-17 17:48:00,
2013-03-17 10:53:00,60.4,42.7,30.13,NW,321,3.0,6.0,52,0.00,,,0.00,VWS V14.01,2013-03-17 17:53:00,
2013-03-17 10:58:00,60.6,41.9,30.13,NW,321,4.0,6.0,50,0.00,,,0.00,VWS V14.01,2013-03-17 17:58:00,
2013-03-17 11:03:00,60.9,42.2,30.13,NW,321,4.0,4.0,50,0.00,,,0.00,VWS V14.01,2013-03-17 18:03:00,
2013-03-17 11:08:00,61.6,41.7,30.13,NW,321,3.0,9.0,48,0.00,,,0.00,VWS V14.01,2013-03-17 18:08:00,
2013-03-17 11:13:00,62.0,41.0,30.13,NW,321,2.0,9.0,46,0.00,,,0.00,VWS V14.01,2013-03-17 18:13:00,
2013-03-17 11:18:00,62.3,41.8,30.12,NW,321,9.0,11.0,47,0.00,,,0.00,VWS V14.01,2013-03-17 18:18:00,
2013-03-17 11:23:00,62.4,41.9,30.12,NW,321,0.0,11.0,47,0.00,,,0.00,VWS V14.01,2013-03-17 18:23:00,
2013-03-17 11:28:00,62.4,41.4,30.12,NW,322,3.0,11.0,46,0.00,,,0.00,VWS V14.01,2013-03-17 18:28:00,
2013-03-17 11:33:00,62.4,42.5,30.13,NW,321,7.0,11.0,48,0.00,,,0.00,VWS V14.01,2013-03-17 18:33:00,
2013-03-17 11:38:00,62.4,41.9,30.13,NW,321,6.0,11.0,47,0.00,,,0.00,VWS V14.01,2013-03-17 18:38:00,
2013-03-17 11:43:00,62.5,41.5,30.12,NW,309,2.0,13.0,46,0.00,,,0.00,VWS V14.01,2013-03-17 18:43:00,
2013-03-17 11:48:00,62.9,41.8,30.13,NW,306,6.0,13.0,46,0.00,,,0.00,VWS V14.01,2013-03-17 18:48:00,
2013-03-17 11:53:00,63.1,42.0,30.13,NW,306,3.0,13.0,46,0.00,,,0.00,VWS V14.01,2013-03-17 18:53:00,
2013-03-17 11:58:00,63.5,42.4,30.13,NW,306,2.0,13.0,46,0.00,,,0.00,VWS V14.01,2013-03-17 18:58:00,
2013-03-17 12:03:00,64.1,42.9,30.12,NW,306,0.0,4.0,46,0.00,,,0.00,VWS V14.01,2013-03-17 19:03:00,
2013-03-17 12:08:00,64.5,42.7,30.12,NW,306,6.0,7.0,45,0.00,,,0.00,VWS V14.01,2013-03-17 19:08:00,
2013-03-17 12:13:00,64.6,42.8,30.12,NW,306,3.0,7.0,45,0.00,,,0.00,VWS V14.01,2013-03-17 19:13:00,
2013-03-17 12:18:00,64.7,42.3,30.12,NW,306,5.0,7.0,44,0.00,,,0.00,VWS V14.01,2013-03-17 19:18:00,
2013-03-17 12:23:00,64.9,42.5,30.12,NW,306,10.0,10.0,44,0.00,,,0.00,VWS V14.01,2013-03-17 19:23:00,
2013-03-17 12:28:00,64.9,42.5,30.11,NW,306,2.0,10.0,44,0.00,,,0.00,VWS V14.01,2013-03-17 19:28:00,
2013-03-17 12:33:00,64.9,42.5,30.11,NW,306,0.0,10.0,44,0.00,,,0.00,VWS V14.01,2013-03-17 19:33:00,
2013-03-17 12:38:00,65.5,42.4,30.11,NW,306,6.0,10.0,43,0.00,,,0.00,VWS V14.01,2013-03-17 19:38:00,
2013-03-17 12:43:00,65.8,42.1,30.11,NW,306,4.0,10.0,42,0.00,,,0.00,VWS V14.01,2013-03-17 19:43:00,
2013-03-17 12:48:00,65.8,42.7,30.11,NW,306,3.0,10.0,43,0.00,,,0.00,VWS V14.01,2013-03-17 19:48:00,
2013-03-17 12:53:00,66.0,42.3,30.10,NW,305,1.0,10.0,42,0.00,,,0.00,VWS V14.01,2013-03-17 19:53:00,
2013-03-17 12:58:00,66.5,43.3,30.10,NW,306,2.0,10.0,43,0.00,,,0.00,VWS V14.01,2013-03-17 19:58:00,
2013-03-17 13:03:00,66.7,42.3,30.10,NW,306,0.0,1.0,41,0.00,,,0.00,VWS V14.01,2013-03-17 20:03:00,
2013-03-17 13:08:00,66.9,43.1,30.09,NW,305,3.0,7.0,42,0.00,,,0.00,VWS V14.01,2013-03-17 20:08:00,
2013-03-17 13:13:00,67.1,42.6,30.09,NW,304,1.0,10.0,41,0.00,,,0.00,VWS V14.01,2013-03-17 20:13:00,
2013-03-17 13:18:00,67.9,42.7,30.09,NW,304,0.0,10.0,40,0.00,,,0.00,VWS V14.01,2013-03-17 20:18:00,
2013-03-17 13:23:00,67.7,41.9,30.09,NW,304,0.0,10.0,39,0.00,,,0.00,VWS V14.01,2013-03-17 20:23:00,
2013-03-17 13:28:00,67.9,42.1,30.08,NW,304,3.0,10.0,39,0.00,,,0.00,VWS V14.01,2013-03-17 20:28:00,
2013-03-17 13:33:00,68.0,42.1,30.09,NW,304,2.0,10.0,39,0.00,,,0.00,VWS V14.01,2013-03-17 20:33:00,
2013-03-17 13:38:00,67.7,41.2,30.08,NW,304,0.0,10.0,38,0.00,,,0.00,VWS V14.01,2013-03-17 20:38:00,
2013-03-17 13:43:00,67.8,42.0,30.08,NW,304,3.0,10.0,39,0.00,,,0.00,VWS V14.01,2013-03-17 20:43:00,
2013-03-17 13:48:00,68.0,41.5,30.08,NW,304,2.0,10.0,38,0.00,,,0.00,VWS V14.01,2013-03-17 20:48:00,
2013-03-17 13:53:00,68.5,42.6,30.08,NW,304,2.0,10.0,39,0.00,,,0.00,VWS V14.01,2013-03-17 20:53:00,
2013-03-17 13:58:00,68.8,42.2,30.08,NW,304,4.0,10.0,38,0.00,,,0.00,VWS V14.01,2013-03-17 20:58:00,
2013-03-17 14:03:00,69.0,41.0,30.08,NW,304,4.0,4.0,36,0.00,,,0.00,VWS V14.01,2013-03-17 21:03:00,
2013-03-17 14:08:00,69.0,41.0,30.08,NW,308,2.0,13.0,36,0.00,,,0.00,VWS V14.01,2013-03-17 21:08:00,
2013-03-17 14:13:00,69.3,41.2,30.07,NW,311,4.0,13.0,36,0.00,,,0.00,VWS V14.01,2013-03-17 21:13:00,
2013-03-17 14:18:00,69.4,41.3,30.07,NW,311,4.0,13.0,36,0.00,,,0.00,VWS V14.01,2013-03-17 21:18:00,
2013-03-17 14:23:00,69.6,42.2,30.07,NW,311,5.0,13.0,37,0.00,,,0.00,VWS V14.01,2013-03-17 21:23:00,
2013-03-17 14:28:00,69.8,43.8,30.06,NW,311,1.0,13.0,39,0.00,,,0.00,VWS V14.01,2013-03-17 21:28:00,
2013-03-17 14:33:00,70.5,43.0,30.06,NW,312,11.0,13.0,37,0.00,,,0.00,VWS V14.01,2013-03-17 21:33:00,
2013-03-17 14:38:00,70.4,40.7,30.06,NW,313,0.0,13.0,34,0.00,,,0.00,VWS V14.01,2013-03-17 21:38:00,
2013-03-17 14:43:00,70.5,40.0,30.06,NW,313,0.0,13.0,33,0.00,,,0.00,VWS V14.01,2013-03-17 21:43:00,
2013-03-17 14:48:00,70.8,42.5,30.06,NW,313,0.0,13.0,36,0.00,,,0.00,VWS V14.01,2013-03-17 21:48:00,
2013-03-17 14:53:00,71.3,42.3,30.05,NW,313,0.0,13.0,35,0.00,,,0.00,VWS V14.01,2013-03-17 21:53:00,
2013-03-17 14:58:00,71.3,42.3,30.05,NW,313,4.0,13.0,35,0.00,,,0.00,VWS V14.01,2013-03-17 21:58:00,
2013-03-17 15:03:00,71.3,42.3,30.05,NW,313,4.0,4.0,35,0.00,,,0.00,VWS V14.01,2013-03-17 22:03:00,
2013-03-17 15:08:00,71.7,41.1,30.05,NW,313,3.0,10.0,33,0.00,,,0.00,VWS V14.01,2013-03-17 22:08:00,
2013-03-17 15:13:00,71.6,41.8,30.05,NW,313,10.0,10.0,34,0.00,,,0.00,VWS V14.01,2013-03-17 22:13:00,
2013-03-17 15:18:00,71.3,41.5,30.05,NW,315,0.0,11.0,34,0.00,,,0.00,VWS V14.01,2013-03-17 22:18:00,
2013-03-17 15:23:00,71.4,41.6,30.05,NW,315,0.0,11.0,34,0.00,,,0.00,VWS V14.01,2013-03-17 22:23:00,
2013-03-17 15:28:00,72.0,39.7,30.05,NW,315,5.0,11.0,31,0.00,,,0.00,VWS V14.01,2013-03-17 22:28:00,
2013-03-17 15:33:00,72.1,39.0,30.05,NW,315,2.0,11.0,30,0.00,,,0.00,VWS V14.01,2013-03-17 22:33:00,
2013-03-17 15:38:00,72.3,39.2,30.04,NW,316,1.0,11.0,30,0.00,,,0.00,VWS V14.01,2013-03-17 22:38:00,
2013-03-17 15:43:00,72.2,39.9,30.04,NW,316,4.0,11.0,31,0.00,,,0.00,VWS V14.01,2013-03-17 22:43:00,
2013-03-17 15:48:00,71.9,40.5,30.03,NW,323,3.0,11.0,32,0.00,,,0.00,VWS V14.01,2013-03-17 22:48:00,
2013-03-17 15:53:00,71.8,40.4,30.03,NW,322,6.0,11.0,32,0.00,,,0.00,VWS V14.01,2013-03-17 22:53:00,
2013-03-17 15:58:00,71.4,39.2,30.03,NW,322,0.0,11.0,31,0.00,,,0.00,VWS V14.01,2013-03-17 22:58:00,
2013-03-17 16:03:00,71.3,40.0,30.03,NW,322,0.0,0.0,32,0.00,,,0.00,VWS V14.01,2013-03-17 23:03:00,
2013-03-17 16:08:00,71.2,39.9,30.03,NW,322,0.0,6.0,32,0.00,,,0.00,VWS V14.01,2013-03-17 23:08:00,
2013-03-17 16:13:00,71.7,40.3,30.03,NW,322,0.0,6.0,32,0.00,,,0.00,VWS V14.01,2013-03-17 23:13:00,
2013-03-17 16:18:00,71.9,40.5,30.03,NNW,329,5.0,7.0,32,0.00,,,0.00,VWS V14.01,2013-03-17 23:18:00,
2013-03-17 16:23:00,72.2,40.7,30.03,NNW,336,2.0,7.0,32,0.00,,,0.00,VWS V14.01,2013-03-17 23:23:00,
2013-03-17 16:28:00,72.4,40.9,30.03,NNW,336,0.0,7.0,32,0.00,,,0.00,VWS V14.01,2013-03-17 23:28:00,
2013-03-17 16:33:00,72.6,40.3,30.03,NNW,336,1.0,7.0,31,0.00,,,0.00,VWS V14.01,2013-03-17 23:33:00,
2013-03-17 16:37:00,72.8,40.4,30.03,NNW,338,0.0,7.0,31,0.00,,,0.00,VWS V14.01,2013-03-17 23:37:00,
2013-03-17 16:43:00,72.9,39.7,30.03,NNW,338,0.0,7.0,30,0.00,,,0.00,VWS V14.01,2013-03-17 23:43:00,
2013-03-17 16:48:00,73.1,40.7,30.03,NNW,338,0.0,7.0,31,0.00,,,0.00,VWS V14.01,2013-03-17 23:48:00,
2013-03-17 16:53:00,73.3,40.0,30.03,NNW,338,0.0,7.0,30,0.00,,,0.00,VWS V14.01,2013-03-17 23:53:00,
2013-03-17 16:58:00,73.1,39.8,30.03,NNW,338,2.0,7.0,30,0.00,,,0.00,VWS V14.01,2013-03-17 23:58:00,
2013-03-17 17:03:00,73.1,39.8,30.03,NNW,338,0.0,2.0,30,0.00,,,0.00,VWS V14.01,2013-03-18 00:03:00,
2013-03-17 17:08:00,72.8,39.6,30.03,NNW,337,1.0,8.0,30,0.00,,,0.00,VWS V14.01,2013-03-18 00:08:00,
2013-03-17 17:13:00,72.7,40.3,30.02,NNW,338,0.0,8.0,31,0.00,,,0.00,VWS V14.01,2013-03-18 00:13:00,
2013-03-17 17:18:00,72.8,39.6,30.03,NNW,338,0.0,8.0,30,0.00,,,0.00,VWS V14.01,2013-03-18 00:18:00,
2013-03-17 17:23:00,72.9,40.5,30.02,NNW,338,1.0,8.0,31,0.00,,,0.00,VWS V14.01,2013-03-18 00:23:00,
2013-03-17 17:28:00,73.0,39.8,30.02,NNW,340,1.0,8.0,30,0.00,,,0.00,VWS V14.01,2013-03-18 00:28:00,
2013-03-17 17:33:00,73.1,39.0,30.02,NNW,340,0.0,8.0,29,0.00,,,0.00,VWS V14.01,2013-03-18 00:33:00,
2013-03-17 17:38:00,73.1,39.8,30.02,NNW,340,0.0,8.0,30,0.00,,,0.00,VWS V14.01,2013-03-18 00:38:00,
2013-03-17 17:43:00,73.2,39.9,30.02,NNW,340,0.0,8.0,30,0.00,,,0.00,VWS V14.01,2013-03-18 00:43:00,
2013-03-17 17:48:00,73.1,39.0,30.02,NNW,340,0.0,8.0,29,0.00,,,0.00,VWS V14.01,2013-03-18 00:48:00,
2013-03-17 17:53:00,72.9,38.8,30.02,NNW,340,0.0,8.0,29,0.00,,,0.00,VWS V14.01,2013-03-18 00:53:00,
2013-03-17 17:58:00,72.9,38.8,30.02,NNW,340,0.0,8.0,29,0.00,,,0.00,VWS V14.01,2013-03-18 00:58:00,
2013-03-17 18:02:00,72.8,38.7,30.01,NNW,340,2.0,5.0,29,0.00,,,0.00,VWS V14.01,2013-03-18 01:02:00,
2013-03-17 18:07:00,72.5,38.5,30.01,NNW,340,0.0,6.0,29,0.00,,,0.00,VWS V14.01,2013-03-18 01:07:00,
2013-03-17 18:12:00,72.2,38.2,30.01,NNW,340,0.0,6.0,29,0.00,,,0.00,VWS V14.01,2013-03-18 01:12:00,
2013-03-17 18:17:00,71.8,37.0,30.01,NNW,340,2.0,6.0,28,0.00,,,0.00,VWS V14.01,2013-03-18 01:17:00,
2013-03-17 18:22:00,71.5,37.6,30.01,NNW,340,0.0,6.0,29,0.00,,,0.00,VWS V14.01,2013-03-18 01:22:00,
2013-03-17 18:27:00,71.3,37.4,30.01,NNW,340,0.0,6.0,29,0.00,,,0.00,VWS V14.01,2013-03-18 01:27:00,
2013-03-17 18:32:00,71.3,37.4,30.01,NNW,340,0.0,6.0,29,0.00,,,0.00,VWS V14.01,2013-03-18 01:32:00,
2013-03-17 18:37:00,71.1,39.0,30.01,NNW,340,0.0,6.0,31,0.00,,,0.00,VWS V14.01,2013-03-18 01:37:00,
2013-03-17 18:42:00,70.8,39.5,30.01,NNW,340,0.0,6.0,32,0.00,,,0.00,VWS V14.01,2013-03-18 01:42:00,
2013-03-17 18:47:00,70.6,39.3,30.01,NNW,340,0.0,6.0,32,0.00,,,0.00,VWS V14.01,2013-03-18 01:47:00,
2013-03-17 18:52:00,70.4,40.0,30.01,NNW,340,0.0,6.0,33,0.00,,,0.00,VWS V14.01,2013-03-18 01:52:00,
2013-03-17 18:57:00,69.9,39.5,30.01,NNW,340,0.0,6.0,33,0.00,,,0.00,VWS V14.01,2013-03-18 01:57:00,
2013-03-17 19:02:00,69.7,40.8,30.01,NNW,340,0.0,6.0,35,0.00,,,0.00,VWS V14.01,2013-03-18 02:02:00,
2013-03-17 19:07:00,69.7,40.8,30.01,NNW,340,0.0,0.0,35,0.00,,,0.00,VWS V14.01,2013-03-18 02:07:00,
2013-03-17 19:12:00,69.5,41.4,30.01,NNW,340,0.0,0.0,36,0.00,,,0.00,VWS V14.01,2013-03-18 02:12:00,
2013-03-17 19:17:00,69.4,41.3,30.01,NNW,340,0.0,0.0,36,0.00,,,0.00,VWS V14.01,2013-03-18 02:17:00,
2013-03-17 19:22:00,69.1,41.0,30.01,NNW,340,0.0,0.0,36,0.00,,,0.00,VWS V14.01,2013-03-18 02:22:00,
2013-03-17 19:27:00,68.8,40.8,30.01,NNW,340,0.0,0.0,36,0.00,,,0.00,VWS V14.01,2013-03-18 02:27:00,
2013-03-17 19:32:00,68.5,39.8,30.01,NNW,340,0.0,0.0,35,0.00,,,0.00,VWS V14.01,2013-03-18 02:32:00,
2013-03-17 19:37:00,68.2,41.0,30.01,NNW,340,0.0,0.0,37,0.00,,,0.00,VWS V14.01,2013-03-18 02:37:00,
2013-03-17 19:42:00,68.0,42.1,30.01,NNW,340,0.0,0.0,39,0.00,,,0.00,VWS V14.01,2013-03-18 02:42:00,
2013-03-17 19:47:00,67.7,41.9,30.01,NNW,340,0.0,0.0,39,0.00,,,0.00,VWS V14.01,2013-03-18 02:47:00,
2013-03-17 19:52:00,67.4,42.3,30.01,NNW,340,0.0,0.0,40,0.00,,,0.00,VWS V14.01,2013-03-18 02:52:00,
2013-03-17 19:57:00,67.1,43.3,30.01,NNW,340,0.0,0.0,42,0.00,,,0.00,VWS V14.01,2013-03-18 02:57:00,
2013-03-17 20:02:00,66.7,42.9,30.01,NNW,340,0.0,0.0,42,0.00,,,0.00,VWS V14.01,2013-03-18 03:02:00,
2013-03-17 20:07:00,66.3,42.5,30.01,NNW,340,0.0,0.0,42,0.00,,,0.00,VWS V14.01,2013-03-18 03:07:00,
2013-03-17 20:12:00,66.0,42.3,30.01,NNW,340,0.0,0.0,42,0.00,,,0.00,VWS V14.01,2013-03-18 03:12:00,
2013-03-17 20:17:00,65.7,42.6,30.01,NNW,340,0.0,0.0,43,0.00,,,0.00,VWS V14.01,2013-03-18 03:17:00,
2013-03-17 20:22:00,65.4,42.9,30.01,NNW,340,0.0,0.0,44,0.00,,,0.00,VWS V14.01,2013-03-18 03:22:00,
2013-03-17 20:27:00,65.1,43.3,30.01,NNW,340,0.0,0.0,45,0.00,,,0.00,VWS V14.01,2013-03-18 03:27:00,
2013-03-17 20:32:00,64.8,43.6,30.01,NNW,340,0.0,0.0,46,0.00,,,0.00,VWS V14.01,2013-03-18 03:32:00,
2013-03-17 20:37:00,64.4,42.6,30.01,NNW,340,0.0,0.0,45,0.00,,,0.00,VWS V14.01,2013-03-18 03:37:00,
2013-03-17 20:42:00,64.1,42.3,30.01,NNW,340,0.0,0.0,45,0.00,,,0.00,VWS V14.01,2013-03-18 03:42:00,
2013-03-17 20:47:00,63.8,42.1,30.02,NNW,340,0.0,0.0,45,0.00,,,0.00,VWS V14.01,2013-03-18 03:47:00,
2013-03-17 20:52:00,63.5,42.4,30.02,NNW,340,0.0,0.0,46,0.00,,,0.00,VWS V14.01,2013-03-18 03:52:00,
2013-03-17 20:57:00,63.1,43.1,30.02,NNW,340,2.0,3.0,48,0.00,,,0.00,VWS V14.01,2013-03-18 03:57:00,
2013-03-17 21:00:00,62.8,42.3,30.02,NNW,340,0.0,3.0,47,0.00,,,0.00,VWS V14.01,2013-03-18 04:00:00,
2013-03-17 21:05:00,62.4,43.0,30.02,NNW,340,0.0,1.0,49,0.00,,,0.00,VWS V14.01,2013-03-18 04:05:00,
2013-03-17 21:10:00,62.2,44.4,30.02,NNW,340,0.0,3.0,52,0.00,,,0.00,VWS V14.01,2013-03-18 04:10:00,
2013-03-17 21:15:00,61.9,45.1,30.02,NNW,340,1.0,3.0,54,0.00,,,0.00,VWS V14.01,2013-03-18 04:15:00,
2013-03-17 21:20:00,61.7,45.9,30.03,NNW,340,2.0,4.0,56,0.00,,,0.00,VWS V14.01,2013-03-18 04:20:00,
2013-03-17 21:25:00,61.4,46.0,30.03,NNW,340,0.0,4.0,57,0.00,,,0.00,VWS V14.01,2013-03-18 04:25:00,
2013-03-17 21:30:00,61.2,46.3,30.03,NNW,340,4.0,4.0,58,0.00,,,0.00,VWS V14.01,2013-03-18 04:30:00,
2013-03-17 21:35:00,61.0,46.6,30.03,NNW,340,0.0,4.0,59,0.00,,,0.00,VWS V14.01,2013-03-18 04:35:00,
2013-03-17 21:40:00,60.7,46.8,30.03,NNW,340,0.0,4.0,60,0.00,,,0.00,VWS V14.01,2013-03-18 04:40:00,
2013-03-17 21:45:00,60.4,46.9,30.03,NNW,340,0.0,4.0,61,0.00,,,0.00,VWS V14.01,2013-03-18 04:45:00,
2013-03-17 21:50:00,60.2,46.7,30.04,NNW,340,0.0,4.0,61,0.00,,,0.00,VWS V14.01,2013-03-18 04:50:00,
2013-03-17 21:55:00,59.9,46.9,30.04,NNW,340,1.0,4.0,62,0.00,,,0.00,VWS V14.01,2013-03-18 04:55:00,
2013-03-17 22:00:00,59.7,46.7,30.03,NNW,340,0.0,4.0,62,0.00,,,0.00,VWS V14.01,2013-03-18 05:00:00,
2013-03-17 22:05:00,59.5,46.5,30.03,NNW,340,0.0,0.0,62,0.00,,,0.00,VWS V14.01,2013-03-18 05:05:00,
2013-03-17 22:10:00,59.3,46.7,30.03,NNW,340,0.0,0.0,63,0.00,,,0.00,VWS V14.01,2013-03-18 05:10:00,
2013-03-17 22:15:00,59.0,46.4,30.03,NNW,340,0.0,0.0,63,0.00,,,0.00,VWS V14.01,2013-03-18 05:15:00,
2013-03-17 22:20:00,59.0,46.8,30.03,NNW,340,0.0,0.0,64,0.00,,,0.00,VWS V14.01,2013-03-18 05:20:00,
2013-03-17 22:25:00,59.0,46.8,30.03,NNW,340,0.0,0.0,64,0.00,,,0.00,VWS V14.01,2013-03-18 05:25:00,
2013-03-17 22:30:00,58.8,46.7,30.03,NNW,340,0.0,1.0,64,0.00,,,0.00,VWS V14.01,2013-03-18 05:30:00,
2013-03-17 22:35:00,58.5,46.8,30.04,NNW,340,0.0,1.0,65,0.00,,,0.00,VWS V14.01,2013-03-18 05:35:00,
2013-03-17 22:40:00,58.3,46.6,30.04,NNW,340,0.0,3.0,65,0.00,,,0.00,VWS V14.01,2013-03-18 05:40:00,
2013-03-17 22:45:00,58.1,46.4,30.04,NNW,340,0.0,3.0,65,0.00,,,0.00,VWS V14.01,2013-03-18 05:45:00,
2013-03-17 22:50:00,58.0,46.3,30.04,NNW,340,0.0,3.0,65,0.00,,,0.00,VWS V14.01,2013-03-18 05:50:00,
2013-03-17 22:55:00,57.9,46.2,30.03,NNW,340,0.0,3.0,65,0.00,,,0.00,VWS V14.01,2013-03-18 05:55:00,
2013-03-17 23:00:00,57.7,46.4,30.03,NNW,340,0.0,3.0,66,0.00,,,0.00,VWS V14.01,2013-03-18 06:00:00,
2013-03-17 23:05:00,57.6,46.3,30.04,NNW,340,0.0,0.0,66,0.00,,,0.00,VWS V14.01,2013-03-18 06:05:00,
2013-03-17 23:10:00,57.5,46.2,30.04,NNW,340,1.0,1.0,66,0.00,,,0.00,VWS V14.01,2013-03-18 06:10:00,
2013-03-17 23:15:00,57.2,46.0,30.04,NNW,340,0.0,3.0,66,0.00,,,0.00,VWS V14.01,2013-03-18 06:15:00,
2013-03-17 23:20:00,57.0,45.8,30.04,NNW,340,0.0,3.0,66,0.00,,,0.00,VWS V14.01,2013-03-18 06:20:00,
2013-03-17 23:25:00,56.8,45.6,30.04,NNW,340,2.0,3.0,66,0.00,,,0.00,VWS V14.01,2013-03-18 06:25:00,
2013-03-17 23:30:00,56.6,45.4,30.04,NNW,340,0.0,3.0,66,0.00,,,0.00,VWS V14.01,2013-03-18 06:30:00,
2013-03-17 23:34:00,56.5,45.7,30.04,NNW,340,0.0,3.0,67,0.00,,,0.00,VWS V14.01,2013-03-18 06:34:00,
2013-03-17 23:39:00,56.3,45.5,30.04,NNW,340,0.0,3.0,67,0.00,,,0.00,VWS V14.01,2013-03-18 06:39:00,
2013-03-17 23:44:00,56.2,45.4,30.04,NNW,340,0.0,3.0,67,0.00,,,0.00,VWS V14.01,2013-03-18 06:44:00,
2013-03-17 23:49:00,55.9,45.1,30.04,NNW,340,0.0,3.0,67,0.00,,,0.00,VWS V14.01,2013-03-18 06:49:00,
2013-03-17 23:54:00,55.7,44.9,30.04,NNW,340,0.0,3.0,67,0.00,,,0.00,VWS V14.01,2013-03-18 06:54:00,
2013-03-17 23:59:00,55.5,45.1,30.04,NNW,340,0.0,3.0,68,0.00,,,0.00,VWS V14.01,2013-03-18 06:59:00,